Sussex, NJ

1:31 AM EST on November 18, 2019 (GMT -0500)
Sussex

Weather History for KFWN - September, 2019

Change the Weather History Date:

Sunday, September 8, 2019

  Actual Average Record
Temperature  
Mean Temperature 64 °F -  
Max Temperature 79 °F 77 °F 93 °F (2015)
Min Temperature 52 °F 51 °F 36 °F (1984)
Growing Degree Days 14 (Base 50)    
Moisture  
Dew Point 54 °F    
Average Humidity 75    
Maximum Humidity 93    
Minimum Humidity 43    
Precipitation  
Precipitation 0.00 in - - ()
Sea Level Pressure  
Sea Level Pressure 30.04 in    
Wind  
Wind Speed 1 mph ()    
Max Wind Speed 9 mph    
Max Gust Speed -    
Visibility 9.9 miles    
Events Rain    
Averages and records for this station are not official NWS values.
T = Trace of Precipitation, MM = Missing Value Source: Averaged Metar Reports

Daily Weather History Graph

Daily Weather History Graph

Search for Another Location

Airport or City:

Astronomy

Sep. 08, 2019 Rise Set
Actual Time 6:31 AM EDT 7:19 PM EDT
Civil Twilight 6:03 AM EDT 7:47 PM EDT
Nautical Twilight 5:30 AM EDT 8:20 PM EDT
Astronomical Twilight 4:56 AM EDT 8:55 PM EDT
Moon 4:29 PM EDT (9/8) 1:06 AM EDT (9/8)
Length of Visible Light 13h 44m
Length of Day
12h 48m
Waxing Gibbous, 75% of the Moon is Illuminated
Sep 8
Waxing Gibbous
Sep 14
Full
Sep 21
Last Quarter
Sep 28
New
Oct 5
First Quarter

Hourly Weather History & Observations

Time (EDT) Temp. Dew Point Humidity Pressure Visibility Wind Dir Wind Speed Gust Speed Precip Events Conditions
12:53 AM 54.0 °F 52.0 °F 93% 29.94 in 10.0 mi Calm Calm - N/A   Clear
1:53 AM 53.1 °F 51.1 °F 93% 29.95 in 10.0 mi Calm Calm - N/A   Clear
2:53 AM 53.1 °F 51.1 °F 93% 29.95 in 10.0 mi Calm Calm - N/A   Mostly Cloudy
3:53 AM 55.0 °F 53.1 °F 93% 29.95 in 10.0 mi Calm Calm - N/A   Overcast
4:53 AM 54.0 °F 52.0 °F 93% 29.96 in 10.0 mi Calm Calm - N/A   Scattered Clouds
5:53 AM 52.0 °F 50.0 °F 93% 29.99 in 8.0 mi Calm Calm - N/A   Clear
6:53 AM 53.1 °F 51.1 °F 93% 30.01 in 10.0 mi Calm Calm - 0.00 in   Clear
7:53 AM 55.9 °F 54.0 °F 93% 30.04 in 10.0 mi Calm Calm - N/A   Mostly Cloudy
8:53 AM 60.1 °F 57.0 °F 90% 30.05 in 10.0 mi Variable 3.5 mph - N/A   Clear
9:53 AM 64.0 °F 57.9 °F 80% 30.06 in 10.0 mi Calm Calm - N/A   Clear
10:53 AM 71.1 °F 55.0 °F 57% 30.06 in 10.0 mi Variable 4.6 mph - N/A   Clear
1:53 PM 75.0 °F 53.1 °F 46% 30.05 in 10.0 mi WNW 9.2 mph - N/A   Scattered Clouds
2:53 PM 77.0 °F 53.1 °F 43% 30.04 in 10.0 mi Variable 4.6 mph - N/A   Partly Cloudy
3:53 PM 77.0 °F 53.1 °F 43% 30.03 in 10.0 mi North 5.8 mph - N/A   Partly Cloudy
4:53 PM 75.9 °F 53.1 °F 45% 30.04 in 10.0 mi Variable 5.8 mph - N/A   Overcast
5:53 PM 73.9 °F 54.0 °F 50% 30.06 in 10.0 mi Calm Calm - N/A   Overcast
6:53 PM 70.0 °F 60.1 °F 71% 30.08 in 10.0 mi Calm Calm - N/A   Overcast
7:53 PM 66.0 °F 57.9 °F 75% 30.11 in 10.0 mi Calm Calm - 0.00 in Rain Light Rain
8:53 PM 64.0 °F 57.9 °F 80% 30.12 in 10.0 mi Calm Calm - 0.00 in   Overcast
9:53 PM 63.0 °F 57.9 °F 84% 30.14 in 10.0 mi Calm Calm - N/A   Mostly Cloudy
10:53 PM 62.1 °F 57.0 °F 84% 30.16 in 10.0 mi Calm Calm - N/A   Clear
11:53 PM 64.0 °F 53.1 °F 67% 30.17 in 10.0 mi NNE 5.8 mph - N/A   Mostly Cloudy